Terminal Aerodrome Forecast
Issued by NWS

Home | Current Version | Previous Version | Text Only | Print | Product List | Glossary On
Versions: 1 2 3 4 5 6 7 8 9 10 11 12 13 14 15 16 17 18 19 20 21 22 23
000
FTUS41 KBOX 251736
TAFACK
TAF
KACK 251736Z 2518/2618 13011G21KT P6SM SCT250
     FM252100 13013G22KT P6SM OVC005
     FM252300 13014G21KT 3SM BR OVC003
     FM260200 18011KT 2SM BR VCSH OVC008
     FM260500 26014KT P6SM BKN008
     FM260700 27015G23KT P6SM SCT250
     FM260900 29018G30KT P6SM SCT250=

USA.gov is the U.S. government's official web portal to all federal, state and local government web resources and services.